Regional Weather Roundup
Issued by NWS Mt. Holly, NJ

Home | Current Version | Previous Version | Text Only | Print | Product List | Glossary On
Versions: 1 2 3 4 5 6 7 8 9 10 11 12 13 14 15 16 17 18 19 20 21 22 23 24 25 26 27
000
ASUS41 KPHI 231113
RWRPHI

REGIONAL WEATHER ROUNDUP
NATIONAL WEATHER SERVICE MOUNT HOLLY NJ
700 AM EDT MON APR 23 2018

NOTE:  "FAIR" INDICATES FEW OR NO CLOUDS BELOW 12,000 FEET WITH NO
SIGNIFICANT WEATHER AND/OR OBSTRUCTIONS TO VISIBILITY.

 * = STATION DOES NOT REPORT PRECIPITATION (E.G. RAIN, SNOW, ETC.)
        OR FOG.

NJZ015>026-231200-
SOUTHERN NEW JERSEY

CITY           SKY/WX    TMP DP  RH WIND       PRES   REMARKS
POMONA         FAIR      39  38  96 CALM      30.46R
WILDWOOD*      FAIR      36  35  96 CALM      30.46R
MILLVILLE      FAIR      33  31  92 CALM      30.45R
WRIGHTSTOWN    FAIR      36  32  87 CALM      30.42R
MOUNT HOLLY    FAIR      36  34  92 CALM      30.45R
TRENTON        FAIR      43  31  62 N3        30.44R

$$
NJZ001>014-231200-
NORTHERN NEW JERSEY

CITY           SKY/WX    TMP DP  RH WIND       PRES   REMARKS
SUSSEX         FAIR      32  28  85 CALM      30.47R
ANDOVER*         N/A     35  30  82 CALM      30.46R
MORRISTOWN     CLEAR     34  30  86 CALM      30.46R
NEWARK         FAIR      44  33  65 N9        30.45R
TETERBORO      FAIR      43  31  62 N6        30.44R
CALDWELL       FAIR      40  30  67 CALM      30.46R
SOMERVILLE     FAIR      34  31  88 CALM      30.44R
ALLAIRE*       FAIR      38  32  79 CALM      30.46R
TOMS RIVER*    FAIR      34  31  88 CALM      30.46R

$$
PAZ043-044-047-054-055-060>062-066>071-231200-
EASTERN PENNSYLVANIA

CITY           SKY/WX    TMP DP  RH WIND       PRES   REMARKS
PHILADELPHIA   FAIR      44  38  79 CALM      30.45R
NORTH PHILA    FAIR      44  34  67 CALM      30.46R
BLUE BELL*     FAIR      37  36  93 CALM      30.46R
DOYLESTOWN     FAIR      37  32  82 CALM      30.44R
QUAKERTOWN*    CLEAR     34  30  86 CALM      30.44R
PERKASIE*      FAIR      36  32  87 CALM      30.45R
POTTSTOWN      FAIR      37  32  82 CALM      30.46R
LANCASTER      FAIR      39  35  86 E3        30.43R
COATESVILLE    FAIR      43  37  81 CALM      30.44R
READING        FAIR      40  35  83 CALM      30.44R
ALLENTOWN      FAIR      35  28  75 N3        30.45R
MOUNT POCONO   FAIR      30  24  78 CALM      30.42R
HAZLETON       FAIR      32  23  69 CALM      30.45R
LEHIGHTON      FAIR      30  28  93 CALM      30.47R
WILKES BARRE   FAIR      36  21  54 CALM      30.44R

$$
DEZALL-MDZ008-012-015-019-020-231200-
DELAWARE AND EASTERN MARYLAND

CITY           SKY/WX    TMP DP  RH WIND       PRES   REMARKS
WILMINGTON     FAIR      42  38  85 CALM      30.45R
DOVER          FAIR      42  35  78 CALM      30.44R
GEORGETOWN     FAIR      40  37  89 CALM      30.44R
EASTON         MOCLDY    46  41  81 CALM      30.46R
ABERDEEN       PTCLDY    38  38  99 CALM      30.44R
PATUXENT       MOCLDY    54  47  77 SE6       30.42
OCEAN CITY     FAIR      42  41  96 CALM      30.44R
WALLOPS ISLAND MOCLDY    50  44  80 CALM      30.44R
CAMBRIDGE      MOCLDY    45  41  87 CALM      30.44R
SALISBURY      FAIR      43  41  93 SW3       30.43R

$$
PAZ001-021-NYZ056-072-MDZ011-DCZ001-231200-
OTHER NEARBY LOCATIONS

CITY           SKY/WX    TMP DP  RH WIND       PRES   REMARKS
HARRISBURG     FAIR      42  33  70 CALM      30.42R
STATE COLLEGE  CLEAR     36  25  64 CALM      30.39R
WILLIAMSPORT   FAIR      34  25  69 NW5       30.44R WCI  30
BINGHAMTON     FAIR      32  19  58 CALM      30.42R
NEW YORK CITY  FAIR      48  31  51 NE10      30.47R
BALTIMORE      MOCLDY    48  41  76 CALM      30.42R
WASHINGTON DC  MOCLDY    51  40  65 SE3       30.43R

$$




USA.gov is the U.S. government's official web portal to all federal, state and local government web resources and services.